Погода в Йорктоне

Канада     51°12′34″N   102°27′46″W
темп.,
°C
ветер,
м/с
пор.,
м/с
влажн.,
%
обл.,
%
осадки,
мм/ч
давл.,
гПа
погр.,
м
24 июля, сб
сб2400:00+17з411340 0.0 1009179
03:00+17зсз613430 0.0 1011356
06:00+15з513560 0.0 1012344
09:00+22зсз813400 0.0 10121540
12:00+26зсз913260 0.0 10112286
15:00+28зсз912215 0.0 10103046
18:00+27сз812245 0.0 10093184
21:00+20зсз47325 0.0 101181
25 июля, вс
вс2500:00+18з48355 0.0 1012110
03:00+16зсз49403 0.0 1012141
06:00+15зсз384763 0.0 1014132
09:00+22сз463652 0.0 1014541
12:00+26сз4627100 0.0 10121520
15:00+28сз46255 0.0 10122485
18:00+28с552623 0.0 10101638
21:00+20ссв410415 0.0 1012154
26 июля, пн
пн2600:00+16всв33490 0.0 101344
03:00+14вюв33545 0.0 101332
06:00+15всв116290 0.0 101311
09:00+21всв454499 0.0 1013419
12:00+24всв6637100 0.0 10131085
15:00+27всв44335 0.0 10121905
18:00+27в42340 0.0 10121757
21:00+20всв47510 0.0 101298
27 июля, вт
вт2700:00+16вюв4107035 0.0 1014198
03:00+15юв41176100 0.0 1014216
06:00+14юв41274100 0.0 1014290
09:00+22ююв6847100 0.0 1013494
12:00+28ююв6734100 0.0 1012938
15:00+33ююв5627100 0.0 10091450
18:00+33ю2327100 0.0 10081654
21:00+25ююв224766 0.0 100816
28 июля, ср
ср2800:00+22ссз4852100 0.0 1011131
03:00+17с4967100 0.0 1014155
06:00+16с4116927 0.0 1017201
09:00+25ссв61044100 0.0 1018618
12:00+29ссв7820100 0.0 10182285
15:00+30с681845 0.0 10192635
18:00+29с67184 0.0 10192499
21:00+21св473586 0.0 102197